sat.trackr.live / text

‹ back to catalog

STARLINK-5375

NORAD 56140 · 2023-046BA

PAYLOAD ACTIVE UNKNOWN

§ Identity

Operator
Country
US
Launch date
2023-03-29
Launch site
AFETR
Launch vehicle
Mass (kg)
RCS (m²)

Purposes: comms

External: N2YO · Heavens-Above · Gunter

§ Orbital elements

Epoch: 2026-09-20T07:57:09.518688Z

Period
94.27 min
Inclination
43.0024°
Eccentricity
0.0001006
Mean motion
15.27576018 rev/d
Perigee alt
482.4 km
Apogee alt
483.8 km
Semi-major
6,861.2 km
B*
2.3938e-6
RAAN
128.1245°
Arg perigee
256.9866°
Mean anomaly
103.0874°
Rev number
19,196

§ Raw data

STARLINK-53751 56140U 23046BA  26263.33136017 -.00000196  00000+0  23938-5 0  99902 56140  43.0024 128.1245 0001006 256.9866 103.0874 15.27576018191964

JSON: /api/v1/satellites/56140 · /tle

For live sub-satellite position, see the globe view (requires WebGL).

§ Visibility from observer

Set your observer location to see the next 7 days of passes ≥ 10°. The values pass through the URL so the page stays shareable.

No JS? Fill the form by hand. The geolocation button needs JavaScript.